Regional Weather Roundup
Issued by NWS

Home | Current Version | Previous Version | Text Only | Print | Product List | Glossary Off
Versions: 1 2 3 4 5 6 7 8 9 10 11 12 13 14 15 16 17 18 19 20 21 22 23 24 25 26 27 28 29 30 31 32 33 34 35 36 37 38 39 40 41 42 43 44 45 46 47 48

000
ASUS43 KDMX 291507
RWRIA

WEATHER ROUNDUP FOR IOWA
NATIONAL WEATHER SERVICE DES MOINES IA
1000 AM CDT TUE JUL 29 2014

NOTE: "FAIR" INDICATES FEW OR NO CLOUDS BELOW 12,000 FEET WITH NO
SIGNIFICANT WEATHER AND/OR OBSTRUCTIONS TO VISIBILITY.

* - THESE STATIONS ARE NOT NWS STATIONS...THUS NOT UNDER NWS
QUALITY CONTROL.  THEY ALSO DO NOT REPORT WEATHER SUCH
AS PRECIPITATION OR FOG.

IAZ001>003-012>014-020>022-031>034-043>046-291600-
   NORTHWEST IOWA

CITY           SKY/WX    TMP DP  RH WIND       PRES   REMARKS
CARROLL *      SUNNY     68  57  68 NW6       30.20F
CHEROKEE *     SUNNY     66  57  72 N6        30.22S
DENISON *      SUNNY     68  57  68 N3        30.20S HAZE
LE MARS *      SUNNY     66  57  72 NW3       30.23S
ORANGE CITY *  SUNNY     66  55  68 NW6       30.23S
SHELDON *      SUNNY     66  57  72 N7        30.21S
SIOUX CITY     MOSUNNY   70  56  61 VRB3      30.23R
SPENCER        SUNNY     69  56  62 N8        30.21S
STORM LAKE *   SUNNY     68  59  73 N7        30.22S
$$

IAZ055>058-069>071-079>083-090>094-291600-
   SOUTHWEST IOWA

CITY           SKY/WX    TMP DP  RH WIND       PRES   REMARKS
ATLANTIC *     PTSUNNY   68  59  73 CALM      30.20S
AUDUBON *      CLOUDY    72  61  68 CALM      30.21F
CLARINDA *     SUNNY     70  59  68 CALM      30.21S
COUNCIL BLFS * SUNNY     70  63  78 CALM      30.21S
CRESTON *      SUNNY     70  57  64 NW7       30.20S
HARLAN  *      MOSUNNY   68  57  68 NE5       30.24F
LAMONI         SUNNY     70  58  65 N5        30.19S
RED OAK *      SUNNY     70  59  68 VRB3      30.21S
SHENANDOAH *   SUNNY     70  63  78 CALM      30.21S
$$

IAZ047>049-059>061-072>074-084-291600-
   CENTRAL IOWA

CITY           SKY/WX    TMP DP  RH WIND       PRES   REMARKS
AMES           SUNNY     69  59  70 NW6       30.18R
ANKENY *       SUNNY     70  59  68 NW5       30.18R
CHARITON *     SUNNY     70  59  68 NW6       30.18S
DES MOINES     MOSUNNY   72  58  61 VRB5      30.17S
GRINNELL*      SUNNY     70  61  73 W3        30.17R
KNOXVILLE *    SUNNY     68  59  73 NW5       30.16S
MARSHALLTOWN   SUNNY     67  60  78 NW6       30.16R
PELLA *        SUNNY     70  61  73 NW5       30.18S
PERRY *          N/A     66  61  82 NW5       30.19S
$$

IAZ004>006-015-016-023>025-035-036-291600-
   NORTH CENTRAL IOWA

CITY           SKY/WX    TMP DP  RH WIND       PRES   REMARKS
ALGONA *       SUNNY     66  57  72 NW7       30.19S
CLARION *      SUNNY     66  61  82 NW6       30.18S
ESTHERVILLE    SUNNY     67  56  67 N7        30.20R
FORT DODGE *   SUNNY     66  57  72 NW6       30.20S
MASON CITY     SUNNY     69  59  70 N6        30.18S
FOREST CITY *  SUNNY     66  59  77 NE7       30.17S
IOWA FALLS *     N/A     68  59  73 W6        30.18S
$$

IAZ007>011-017>019-026>030-037>042-050>054-066-291600-
   NORTHEAST IOWA

CITY           SKY/WX    TMP DP  RH WIND       PRES   REMARKS
CEDAR RAPIDS   SUNNY     68  57  68 NW6       30.13S
CHARLES CITY * SUNNY     68  59  73 NW7       30.16R
CLINTON *      SUNNY     68  61  77 W7        30.13F
DECORAH *      SUNNY     68  59  73 NW5       30.12S
DUBUQUE        SUNNY     70  59  68 NW8       30.11S
MONTICELLO *   SUNNY     70  61  73 VRB5      30.12S
OELWEIN *      SUNNY     68  61  77 NW7       30.14S
WATERLOO       SUNNY     69  59  70 NW6       30.13S
$$

IAZ064-065-067-068-078-291600-
   EAST CENTRAL IOWA

CITY           SKY/WX    TMP DP  RH WIND       PRES   REMARKS
DAVENPORT      SUNNY     69  60  73 NW5       30.12F
IOWA CITY      SUNNY     71  59  65 W7        30.14S
MT. PLEASANT * SUNNY     72  57  60 NW5       30.15S
MUSCATINE *    SUNNY     72  59  64 VRB5      30.13S
QUAD CITIES    SUNNY     71  57  61 W6        30.11F
$$

IAZ062-063-075>077-085>089-095>099-291600-
   SOUTHEAST IOWA

CITY           SKY/WX    TMP DP  RH WIND       PRES   REMARKS
BURLINGTON     SUNNY     70  59  68 NW7       30.13S
FAIRFIELD *    SUNNY     70  59  68 NW6       30.16R
FORT MADISON * SUNNY     72  61  68 NW3       30.15S
KEOKUK *       SUNNY     70  59  68 NW5       30.14S
OSKALOOSA *      N/A     70  61  73 NW5       30.17R
CENTERVILLE *  SUNNY     72  59  64 NW6       30.19S
OTTUMWA        SUNNY     70  59  68 NW7       30.14S
WASHINGTON *   SUNNY     70  61  73 NW7       30.14S
$$

ABBREVIATIONS USED IN REMARKS
   TC - TEMPERATURES IN CELSIUS
  WCI - WIND CHILL INDEX
   HX - HEAT INDEX
  VSB - VISIBILITY
$$



USA.gov is the U.S. government's official web portal to all federal, state and local government web resources and services.